Find Starlink 6118

NORAD ID: 57106 Int'l Des: 2023-090 Owner: SPXS Country: US Constellation: starlink operational
LEOCIRCULAR

Live-Position

3D-Globus wird geladen...

Über Starlink 6118

Beschreibung wird geladen...

Nächste Überflüge

Passes for default location (London). Set your location on the main map for personalized predictions.

Höhenverlauf

Loading altitude history...

Zweizeiliger Elementsatz

1 57106U 23090F 26120.34022345 -.00000916 00000-0 -24483-4 0 9990
2 57106 43.0010 349.6891 0000948 267.1638 92.9105 15.26744504158236
Epoch: 30. Apr. 2026 • Age: 22 hours

Aktueller Status

Höhe 488.0 km
Geschwindigkeit 7.63 km/s
Subsatellitenpunkt 37.28°N, 83.24°E
Startdatum 23. Juni 2023
Alter 2.8 years
Typ internet

Technische Details

Klassifizierung Payload
Masse 305.00 kg
Trockenmasse 290.00 kg
Gesamtmasse 305.00 kg
Länge 0.20 m
Durchmesser 2.80 m
Spannweite 9.00 m
Form Box + pan
Hersteller SPXS
Bus-Typ Starlink
Phasenstatus In Orbit
Besitzer/Staat SPXS/US

Most Searched